N9BSW Weather Reports


time (UTC)temp
C
wind
direction
speed
KPH
gust
KPH
rain 1hr
cm
rain 24hr
cm
rain mn
cm
humidity
%
barometer
mb
20260905191012 33 166 0.0 0.0 0.00 0.00 0.00 51 1013.0
20260905190510 34 56 3.2 6.4 0.00 0.00 0.00 51 1013.1
20260905190004 34 156 3.2 3.2 0.00 0.00 0.00 51 1013.1
20260905185459 34 100 1.6 3.2 0.00 0.00 0.00 52 1013.2
20260905184957 34 170 1.6 3.2 0.00 0.00 0.00 51 1013.2
20260905184453 33 171 0.0 1.6 0.00 0.00 0.00 52 1013.2
20260905183951 34 165 0.0 0.0 0.00 0.00 0.00 50 1013.3
20260905183450 34 154 1.6 3.2 0.00 0.00 0.00 51 1013.5
20260905182945 33 157 0.0 0.0 0.00 0.00 0.00 51 1013.3
20260905182445 33 164 1.6 1.6 0.00 0.00 0.00 52 1013.4
20260905181940 33 181 1.6 3.2 0.00 0.00 0.00 54 1013.5
20260905181435 33 279 8.0 9.7 0.00 0.00 0.00 51 1013.7
20260905180934 33 176 4.8 4.8 0.00 0.00 0.00 52 1013.7
20260905180429 33 152 1.6 3.2 0.00 0.00 0.00 51 1013.8
20260905175925 33 176 0.0 1.6 0.00 0.00 0.00 50 1013.9
20260905175424 33 190 1.6 1.6 0.00 0.00 0.00 50 1013.8
20260905174919 32 164 1.6 3.2 0.00 0.00 0.00 53 1013.8
20260905174415 33 280 6.4 6.4 0.00 0.00 0.00 50 1014.1
20260905173910 33 191 1.6 4.8 0.00 0.00 0.00 53 1013.9
20260905173407 32 163 0.0 1.6 0.00 0.00 0.00 51 1013.8
20260905172906 32 165 1.6 4.8 0.00 0.00 0.00 53 1014.2
20260905172404 32 160 0.0 0.0 0.00 0.00 0.00 54 1014.2
20260905171900 32 166 1.6 3.2 0.00 0.00 0.00 51 1014.2
20260905171357 32 175 6.4 6.4 0.00 0.00 0.00 51 1014.3
20260905170853 32 163 0.0 1.6 0.00 0.00 0.00 51 1014.3
20260905170349 32 175 3.2 4.8 0.00 0.00 0.00 53 1014.5
20260905165848 32 171 3.2 3.2 0.00 0.00 0.00 51 1014.6
20260905165343 31 156 0.0 1.6 0.00 0.00 0.00 52 1014.5
20260905164838 32 173 1.6 3.2 0.00 0.00 0.00 53 1014.8
20260905164333 31 164 0.0 0.0 0.00 0.00 0.00 54 1014.7
20260905163828 31 165 0.0 1.6 0.00 0.00 0.00 52 1014.8
20260905163325 32 166 1.6 3.2 0.00 0.00 0.00 53 1014.8
20260905162820 32 151 0.0 0.0 0.00 0.00 0.00 52 1014.9
20260905162315 31 169 0.0 0.0 0.00 0.00 0.00 53 1014.8
20260905161815 32 163 0.0 1.6 0.00 0.00 0.00 51 1014.7
20260905161314 31 163 0.0 0.0 0.00 0.00 0.00 53 1015.0
20260905160812 31 161 1.6 4.8 0.00 0.00 0.00 54 1014.8
20260905160308 30 164 0.0 1.6 0.00 0.00 0.00 58 1014.9
20260905155802 30 159 0.0 0.0 0.00 0.00 0.00 56 1014.8
20260905155305 30 165 3.2 4.8 0.00 0.00 0.00 56 1014.6
20260905154801 29 166 3.2 4.8 0.00 0.00 0.00 57 1014.7
20260905154257 29 176 6.4 9.7 0.00 0.00 0.00 55 1014.9
20260905153752 30 167 3.2 6.4 0.00 0.00 0.00 56 1014.9
20260905153248 30 145 3.2 4.8 0.00 0.00 0.00 57 1014.9
20260905152743 29 173 1.6 1.6 0.00 0.00 0.00 57 1015.0
20260905152242 29 163 1.6 3.2 0.00 0.00 0.00 58 1015.0
20260905151742 29 159 3.2 3.2 0.00 0.00 0.00 58 1015.1
20260905151238 28 146 1.6 3.2 0.00 0.00 0.00 57 1015.2
20260905150738 28 143 3.2 3.2 0.00 0.00 0.00 58 1015.2
20260905150237 28 151 1.6 1.6 0.00 0.00 0.00 59 1015.2
20260905145735 27 165 4.8 9.7 0.00 0.00 0.00 59 1015.1
20260905145230 28 175 6.4 12.9 0.00 0.00 0.00 59 1015.0
20260905144729 28 164 3.2 3.2 0.00 0.00 0.00 59 1015.3
20260905144224 28 169 3.2 3.2 0.00 0.00 0.00 61 1015.3
20260905143723 28 170 6.4 6.4 0.00 0.00 0.00 58 1015.1
20260905143223 28 154 1.6 1.6 0.00 0.00 0.00 60 1015.4
20260905142721 27 183 4.8 6.4 0.00 0.00 0.00 60 1015.4
20260905142216 27 157 3.2 3.2 0.00 0.00 0.00 61 1015.4
20260905141712 27 188 1.6 3.2 0.00 0.00 0.00 63 1015.3
20260905141208 27 139 6.4 9.7 0.00 0.00 0.00 63 1015.4
20260905140703 27 142 0.0 0.0 0.00 0.00 0.00 63 1015.5
20260905140203 26 179 1.6 3.2 0.00 0.00 0.00 63 1015.3
20260905135657 26 179 4.8 9.7 0.00 0.00 0.00 64 1015.3
20260905135154 26 133 6.4 9.7 0.00 0.00 0.00 64 1015.4
20260905134653 26 172 3.2 4.8 0.00 0.00 0.00 64 1015.5
20260905134152 26 181 6.4 9.7 0.00 0.00 0.00 66 1015.6
20260905133647 25 192 3.2 4.8 0.00 0.00 0.00 68 1015.4
20260905133141 25 159 4.8 6.4 0.00 0.00 0.00 68 1015.2
20260905132641 25 140 4.8 4.8 0.00 0.00 0.00 67 1015.3
20260905132136 25 153 1.6 3.2 0.00 0.00 0.00 70 1015.2
20260905131631 25 144 6.4 9.7 0.00 0.00 0.00 70 1015.2
20260905131126 25 94 1.6 3.2 0.00 0.00 0.00 71 1015.3
20260905130621 25 158 0.0 1.6 0.00 0.00 0.00 71 1015.6
20260905130121 25 163 3.2 4.8 0.00 0.00 0.00 71 1015.7
20260905125621 24 173 1.6 3.2 0.00 0.00 0.00 73 1015.7
20260905125117 23 186 4.8 6.4 0.00 0.00 0.00 73 1015.7
20260905124613 24 164 3.2 3.2 0.00 0.00 0.00 74 1015.5
20260905124109 23 151 0.0 1.6 0.00 0.00 0.00 75 1015.6
20260905123604 23 163 0.0 0.0 0.00 0.00 0.00 77 1015.6
20260905123101 23 205 1.6 3.2 0.00 0.00 0.00 78 1015.7
20260905122601 23 175 1.6 3.2 0.00 0.00 0.00 79 1015.6
20260905122101 23 101 3.2 3.2 0.00 0.00 0.00 79 1015.5
20260905121555 23 300 1.6 1.6 0.00 0.00 0.00 79 1015.7
20260905121051 22 190 4.8 4.8 0.00 0.00 0.00 79 1015.5
20260905120549 22 161 0.0 1.6 0.00 0.00 0.00 79 1015.5
20260905120045 22 192 1.6 3.2 0.00 0.00 0.00 80 1015.5
20260905115544 22 140 4.8 9.7 0.00 0.00 0.00 80 1015.7
20260905115039 22 158 0.0 1.6 0.00 0.00 0.00 81 1015.4
20260905114538 22 149 0.0 1.6 0.00 0.00 0.00 81 1015.2
20260905114037 22 69 4.8 6.4 0.00 0.00 0.00 80 1015.1
20260905113532 23 176 4.8 9.7 0.00 0.00 0.00 81 1015.0
20260905113028 23 234 1.6 3.2 0.00 0.00 0.00 81 1015.1
20260905112523 23 164 3.2 4.8 0.00 0.00 0.00 82 1014.9
20260905112018 23 77 3.2 3.2 0.00 0.00 0.00 86 1014.9
20260905111513 24 160 1.6 3.2 0.00 0.00 0.00 88 1014.6
20260905111012 24 152 3.2 6.4 0.00 0.00 0.00 94 1014.7
20260905110512 23 90 6.4 9.7 0.00 0.00 0.00 97 1014.6
20260905110007 23 160 0.0 0.0 0.00 0.00 0.00 97 1013.9
20260905105501 23 160 0.0 0.0 0.00 0.00 0.00 97 1014.0
20260905105000 23 164 0.0 0.0 0.00 0.00 0.00 97 1013.8
20260905104457 23 164 0.0 0.0 0.00 0.00 0.00 97 1013.8
20260905103956 23 165 0.0 0.0 0.00 0.00 0.00 97 1013.7
20260905103452 23 160 0.0 0.0 0.00 0.00 0.00 96 1013.8
20260905102948 23 160 0.0 0.0 0.00 0.00 0.00 96 1013.8
20260905102444 23 159 0.0 0.0 0.00 0.00 0.00 96 1013.8
20260905101939 23 157 0.0 0.0 0.00 0.00 0.00 96 1013.8
20260905101438 23 163 0.0 0.0 0.00 0.00 0.00 96 1013.8
20260905100937 23 163 0.0 0.0 0.00 0.00 0.00 96 1013.5
20260905100433 23 163 0.0 0.0 0.00 0.00 0.00 96 1013.5
20260905095932 23 163 0.0 0.0 0.00 0.00 0.00 96 1013.7
20260905095433 23 163 0.0 0.0 0.00 0.00 0.00 96 1013.4
20260905094932 23 163 0.0 0.0 0.00 0.00 0.00 95 1013.7
20260905094429 23 163 0.0 0.0 0.00 0.00 0.00 95 1013.7
20260905093927 23 163 0.0 0.0 0.00 0.00 0.00 95 1013.5
20260905093423 23 161 0.0 0.0 0.00 0.00 0.00 95 1013.3
20260905092918 24 163 0.0 0.0 0.00 0.00 0.00 95 1013.4
20260905092413 24 166 0.0 0.0 0.00 0.00 0.00 95 1013.4
20260905091909 24 166 0.0 0.0 0.00 0.00 0.00 95 1013.7
20260905091409 24 166 0.0 0.0 0.00 0.00 0.00 96 1013.4
20260905090908 24 165 0.0 0.0 0.00 0.00 0.00 96 1013.7
20260905090404 23 168 0.0 0.0 0.00 0.00 0.00 96 1013.9
20260905085903 23 158 0.0 0.0 0.00 0.00 0.00 96 1013.8
20260905085402 23 158 0.0 0.0 0.00 0.00 0.00 96 1013.8
20260905084859 23 158 0.0 0.0 0.00 0.00 0.00 96 1013.5
20260905084358 23 158 0.0 0.0 0.00 0.00 0.00 96 1013.4
20260905083853 23 158 0.0 0.0 0.00 0.00 0.00 96 1013.4
20260905083348 23 157 0.0 0.0 0.00 0.00 0.00 96 1013.5
20260905082843 23 163 0.0 0.0 0.00 0.00 0.00 96 1013.1
20260905082340 23 163 0.0 0.0 0.00 0.00 0.00 96 1013.0
20260905081835 23 163 0.0 0.0 0.00 0.00 0.00 96 1013.1
20260905081329 23 163 0.0 0.0 0.00 0.00 0.00 96 1012.9
20260905080828 23 163 0.0 0.0 0.00 0.00 0.00 96 1012.9
20260905080323 23 163 0.0 0.0 0.00 0.00 0.00 96 1012.8
20260905075822 23 163 0.0 0.0 0.00 0.00 0.00 95 1012.9
20260905075322 23 163 0.0 0.0 0.00 0.00 0.00 95 1012.9
20260905074821 23 163 0.0 0.0 0.00 0.00 0.00 95 1012.8
20260905074317 23 163 0.0 0.0 0.00 0.00 0.00 95 1012.9
20260905073812 23 164 0.0 0.0 0.00 0.00 0.00 95 1012.6
20260905073307 23 164 0.0 0.0 0.00 0.00 0.00 95 1012.9
20260905072802 24 164 0.0 0.0 0.00 0.00 0.00 95 1012.7
20260905072257 24 164 0.0 0.0 0.00 0.00 0.00 95 1012.7
20260905071754 24 164 0.0 0.0 0.00 0.00 0.00 94 1012.7
20260905071249 24 164 0.0 0.0 0.00 0.00 0.00 94 1012.8
20260905070744 24 164 0.0 0.0 0.00 0.00 0.00 94 1013.0
20260905070241 24 164 0.0 0.0 0.00 0.00 0.00 94 1013.0
20260905065739 24 164 0.0 0.0 0.00 0.00 0.00 94 1013.0
20260905065233 24 164 0.0 0.0 0.00 0.00 0.00 94 1012.9
20260905064728 24 164 0.0 0.0 0.00 0.00 0.00 94 1013.3
20260905064224 24 164 0.0 0.0 0.00 0.00 0.00 93 1013.2
20260905063722 24 164 0.0 0.0 0.00 0.00 0.00 93 1013.5
20260905063218 24 164 0.0 0.0 0.00 0.00 0.00 93 1013.5
20260905062714 25 164 0.0 0.0 0.00 0.00 0.00 93 1013.3
20260905062214 25 164 0.0 0.0 0.00 0.00 0.00 93 1013.4
20260905061713 25 164 0.0 0.0 0.00 0.00 0.00 93 1013.5
20260905061208 25 164 0.0 0.0 0.00 0.00 0.00 93 1013.7
20260905060703 25 164 0.0 0.0 0.00 0.00 0.00 93 1013.7
20260905060200 25 164 0.0 0.0 0.00 0.00 0.00 92 1013.8
20260905055658 25 164 0.0 0.0 0.00 0.00 0.00 92 1014.0
20260905055154 25 164 0.0 0.0 0.00 0.00 0.00 92 1013.9
20260905054649 25 164 0.0 0.0 0.00 0.00 0.00 92 1014.1
20260905054144 25 164 0.0 0.0 0.00 0.00 0.00 92 1014.0
20260905053644 25 164 0.0 0.0 0.00 0.00 0.00 91 1014.0
20260905053139 25 164 0.0 0.0 0.00 0.00 0.00 91 1014.2
20260905052638 25 163 0.0 0.0 0.00 0.00 0.00 91 1014.1
20260905052134 25 165 0.0 0.0 0.00 0.00 0.00 91 1014.2
20260905051629 25 165 0.0 0.0 0.00 0.00 0.00 90 1014.2
20260905051126 25 165 0.0 0.0 0.00 0.00 0.00 90 1014.1
20260905050622 25 165 0.0 0.0 0.00 0.00 0.00 90 1014.1
20260905050118 25 165 0.0 0.0 0.00 0.00 0.00 89 1014.0
20260905045618 25 165 0.0 0.0 0.00 0.00 0.00 89 1014.2
20260905045114 25 165 0.0 0.0 0.00 0.00 0.00 89 1014.2
20260905044613 25 165 0.0 0.0 0.00 0.00 0.00 89 1014.3
20260905044108 25 165 0.0 0.0 0.00 0.00 0.00 88 1014.3
20260905043607 25 165 0.0 0.0 0.00 0.00 0.00 88 1014.2
20260905043102 25 165 0.0 0.0 0.00 0.00 0.00 88 1014.2
20260905042601 26 165 0.0 0.0 0.00 0.00 0.00 88 1014.1
20260905042056 26 165 0.0 0.0 0.00 0.00 0.00 88 1014.4
20260905041552 26 165 0.0 0.0 0.00 0.00 0.00 87 1014.5
20260905041047 26 165 0.0 0.0 0.00 0.00 0.00 87 1014.2
20260905040547 26 160 0.0 0.0 0.00 0.00 0.00 88 1014.4
20260905040045 26 159 0.0 0.0 0.00 0.00 0.00 87 1014.4
20260905035541 26 159 0.0 0.0 0.00 0.00 0.00 87 1014.4
20260905035038 26 159 0.0 0.0 0.00 0.00 0.00 87 1014.4
20260905034534 26 159 0.0 0.0 0.00 0.00 0.00 87 1014.3
20260905034033 26 159 0.0 0.0 0.00 0.00 0.00 87 1014.3
20260905033532 26 161 0.0 0.0 0.00 0.00 0.00 87 1014.3
20260905033028 26 161 0.0 0.0 0.00 0.00 0.00 87 1014.5
20260905032523 26 161 0.0 0.0 0.00 0.00 0.00 87 1014.5
20260905032018 26 161 0.0 0.0 0.00 0.00 0.00 87 1014.5
20260905031514 26 161 0.0 0.0 0.00 0.00 0.00 87 1014.6
20260905031014 26 160 0.0 0.0 0.00 0.00 0.00 87 1014.5
20260905030509 26 160 0.0 0.0 0.00 0.00 0.00 87 1014.3
20260905030009 26 160 0.0 0.0 0.00 0.00 0.00 86 1014.2
20260905025504 26 159 0.0 0.0 0.00 0.00 0.00 86 1014.3
20260905025001 27 159 0.0 0.0 0.00 0.00 0.00 86 1014.3
20260905024501 26 159 0.0 0.0 0.00 0.00 0.00 87 1014.2
20260905023957 26 158 0.0 0.0 0.00 0.00 0.00 88 1014.0
20260905023457 27 164 0.0 0.0 0.00 0.00 0.00 86 1014.1
20260905022955 27 164 0.0 0.0 0.00 0.00 0.00 86 1014.4
20260905022451 27 164 0.0 0.0 0.00 0.00 0.00 86 1014.2
20260905021946 27 164 0.0 0.0 0.00 0.00 0.00 86 1014.0
20260905021446 27 164 0.0 0.0 0.00 0.00 0.00 85 1014.2
20260905020941 27 164 0.0 0.0 0.00 0.00 0.00 84 1014.3
20260905020442 27 164 0.0 0.0 0.00 0.00 0.00 83 1014.1
20260905015942 27 164 0.0 0.0 0.00 0.00 0.00 83 1014.2
20260905015440 27 164 0.0 0.0 0.00 0.00 0.00 83 1014.1
20260905014939 27 164 0.0 0.0 0.00 0.00 0.00 82 1014.0
20260905014435 27 164 0.0 0.0 0.00 0.00 0.00 81 1014.0
20260905013930 28 164 0.0 0.0 0.00 0.00 0.00 80 1014.1
20260905013427 28 164 0.0 0.0 0.00 0.00 0.00 79 1013.8
20260905012927 28 166 0.0 0.0 0.00 0.00 0.00 79 1013.7
20260905012422 28 165 0.0 0.0 0.00 0.00 0.00 78 1013.8
20260905011919 28 165 0.0 0.0 0.00 0.00 0.00 78 1013.7
20260905011414 28 165 0.0 0.0 0.00 0.00 0.00 77 1013.9
20260905010910 28 165 0.0 0.0 0.00 0.00 0.00 77 1013.9
20260905010405 28 165 0.0 0.0 0.00 0.00 0.00 76 1014.0
20260905005901 29 165 0.0 0.0 0.00 0.00 0.00 75 1013.9
20260905005356 28 165 0.0 0.0 0.00 0.00 0.00 76 1013.4
20260905004852 28 165 0.0 0.0 0.00 0.00 0.00 75 1013.8
20260905004351 29 165 0.0 0.0 0.00 0.00 0.00 74 1014.0
20260905003847 29 165 0.0 0.0 0.00 0.00 0.00 73 1013.8
20260905003343 30 166 0.0 0.0 0.00 0.00 0.00 73 1013.7
20260905002839 30 166 0.0 0.0 0.00 0.00 0.00 72 1013.7
20260905002338 30 166 0.0 0.0 0.00 0.00 0.00 71 1013.7
20260905001833 30 165 0.0 0.0 0.00 0.00 0.00 70 1013.7
20260905001332 31 165 0.0 0.0 0.00 0.00 0.00 68 1013.8
20260905000828 31 165 0.0 0.0 0.00 0.00 0.00 67 1013.7
20260905000325 31 166 0.0 0.0 0.00 0.00 0.00 65 1013.7
20260904235818 31 165 0.0 0.0 0.00 0.00 0.00 64 1013.5
20260904235314 32 166 0.0 0.0 0.00 0.00 0.00 64 1013.7
20260904234808 32 167 0.0 0.0 0.00 0.00 0.00 63 1013.8
20260904234303 32 169 0.0 0.0 0.00 0.00 0.00 62 1013.8
20260904233759 32 167 0.0 0.0 0.00 0.00 0.00 60 1013.5
20260904233255 33 169 1.6 1.6 0.00 0.00 0.00 59 1013.8
20260904232752 33 169 0.0 0.0 0.00 0.00 0.00 58 1013.8
20260904232248 33 170 1.6 1.6 0.00 0.00 0.00 57 1013.5
20260904231743 33 181 3.2 3.2 0.00 0.00 0.00 56 1013.5
20260904231239 33 165 0.0 0.0 0.00 0.00 0.00 56 1013.5
20260904230738 34 164 0.0 1.6 0.00 0.00 0.00 56 1013.8
20260904230232 34 168 0.0 0.0 0.00 0.00 0.00 55 1013.3
20260904225732 35 234 1.6 3.2 0.00 0.00 0.00 53 1013.5
20260904225226 35 192 3.2 3.2 0.00 0.00 0.00 52 1013.5
20260904224725 35 203 0.0 1.6 0.00 0.00 0.00 51 1013.4
20260904224220 35 174 0.0 1.6 0.00 0.00 0.00 52 1013.5
20260904223719 35 185 1.6 3.2 0.00 0.00 0.00 51 1013.4
20260904223215 36 176 3.2 4.8 0.00 0.00 0.00 51 1013.5
20260904222710 35 155 1.6 1.6 0.00 0.00 0.00 53 1013.1
20260904222206 35 224 4.8 6.4 0.00 0.00 0.00 52 1013.3
20260904221705 36 198 4.8 4.8 0.00 0.00 0.00 51 1013.4
20260904221200 36 167 1.6 1.6 0.00 0.00 0.00 50 1013.3
20260904220655 35 173 1.6 1.6 0.00 0.00 0.00 52 1013.4
20260904220150 36 220 6.4 6.4 0.00 0.00 0.00 48 1013.3
20260904215650 36 223 1.6 1.6 0.00 0.00 0.00 49 1013.1
20260904215147 36 171 3.2 3.2 0.00 0.00 0.00 49 1013.2
20260904214647 36 168 1.6 1.6 0.00 0.00 0.00 49 1013.2
20260904214142 36 161 0.0 1.6 0.00 0.00 0.00 48 1013.1
20260904213640 36 162 3.2 3.2 0.00 0.00 0.00 47 1013.3
20260904213137 36 212 1.6 3.2 0.00 0.00 0.00 49 1013.3
20260904212637 36 189 1.6 3.2 0.00 0.00 0.00 48 1013.5
20260904212132 37 182 1.6 1.6 0.00 0.00 0.00 47 1013.4
20260904211632 36 164 0.0 0.0 0.00 0.00 0.00 46 1013.5
20260904211127 36 157 0.0 0.0 0.00 0.00 0.00 47 1013.5
20260904210627 36 267 4.8 4.8 0.00 0.00 0.00 45 1013.8
20260904210123 37 222 3.2 3.2 0.00 0.00 0.00 46 1013.9
20260904205618 36 169 3.2 4.8 0.00 0.00 0.00 45 1013.8
20260904205115 36 221 4.8 6.4 0.00 0.00 0.00 46 1013.8
20260904204610 36 183 0.0 1.6 0.00 0.00 0.00 46 1013.9
20260904204106 36 179 6.4 11.3 0.00 0.00 0.00 46 1014.1
20260904203602 36 175 3.2 3.2 0.00 0.00 0.00 48 1014.0
20260904203058 36 294 3.2 4.8 0.00 0.00 0.00 47 1014.0
20260904202554 36 226 3.2 4.8 0.00 0.00 0.00 47 1014.1
20260904202050 37 286 6.4 9.7 0.00 0.00 0.00 45 1014.3
20260904201545 37 163 0.0 0.0 0.00 0.00 0.00 49 1014.2
20260904201040 36 162 1.6 3.2 0.00 0.00 0.00 48 1014.2
20260904200538 37 161 3.2 3.2 0.00 0.00 0.00 46 1014.3
20260904200034 37 184 1.6 3.2 0.00 0.00 0.00 44 1014.2
20260904195532 37 170 0.0 0.0 0.00 0.00 0.00 48 1014.4
20260904195031 36 235 4.8 4.8 0.00 0.00 0.00 45 1014.5
20260904194526 36 240 4.8 6.4 0.00 0.00 0.00 45 1014.6
20260904194022 37 263 6.4 12.9 0.00 0.00 0.00 46 1014.6
20260904193522 37 350 4.8 6.4 0.00 0.00 0.00 44 1014.7
20260904193019 36 154 1.6 1.6 0.00 0.00 0.00 47 1014.7
20260904192517 36 167 1.6 3.2 0.00 0.00 0.00 48 1014.7
20260904192014 37 215 1.6 4.8 0.00 0.00 0.00 46 1015.0
20260904191510 37 171 1.6 1.6 0.00 0.00 0.00 45 1014.7